• în România
  • Lista ţărilor
  • Pe 7 zile
  • Temperatura apei
  • Hartă satelitară
  • Meteo pe hartă
  • Widget-uri
  • user-avatar
    Intrare

    Meteo pe oră la Ostrozhki

    Astăzi, 19 Aprilie, Joi

    Timp Temperatura Precipitaţii Vânt Presiune Umiditate
    00:00 +6°C° 0,3 mm 5 m/s 739 mmHg 91%
    01:00 +6°C° 0,3 mm 5 m/s 739 mmHg 91%
    02:00 +7°C° 0 mm 3 m/s 739 mmHg 91%
    03:00 +6°C° 0,5 mm 4 m/s 739 mmHg 91%
    04:00 +6°C° 0,5 mm 4 m/s 739 mmHg 92%
    05:00 +5°C° 0,5 mm 5 m/s 739 mmHg 92%
    06:00 +5°C° 0,6 mm 5 m/s 739 mmHg 91%
    07:00 +5°C° 0,6 mm 5 m/s 739 mmHg 91%
    08:00 +5°C° 0,6 mm 5 m/s 739 mmHg 91%
    09:00 +5°C° 0,5 mm 4 m/s 739 mmHg 90%
    10:00 +6°C° 0,5 mm 4 m/s 739 mmHg 90%
    11:00 +6°C° 0,5 mm 4 m/s 739 mmHg 89%
    12:00 +6°C° 0,3 mm 4 m/s 739 mmHg 88%
    13:00 +7°C° 0,3 mm 4 m/s 740 mmHg 86%
    14:00 +8°C° 0,3 mm 4 m/s 740 mmHg 85%
    15:00 +8°C° 0 mm 4 m/s 740 mmHg 82%
    16:00 +10°C° 0 mm 4 m/s 740 mmHg 78%
    17:00 +10°C° 0 mm 4 m/s 741 mmHg 75%
    18:00 +8°C° 0 mm 4 m/s 741 mmHg 77%
    19:00 +8°C° 0 mm 4 m/s 741 mmHg 79%
    20:00 +8°C° 0 mm 3 m/s 742 mmHg 81%
    21:00 +7°C° 0 mm 3 m/s 742 mmHg 82%
    22:00 +7°C° 0 mm 3 m/s 742 mmHg 84%
    23:00 +5°C° 0 mm 3 m/s 743 mmHg 85%

    Mâine, 20 Aprilie, Vineri

    Timp Temperatura Precipitaţii Vânt Presiune Umiditate
    00:00 +5°C° 0 mm 3 m/s 743 mmHg 88%
    01:00 +4°C° 0 mm 3 m/s 743 mmHg 91%
    02:00 +4°C° 0 mm 3 m/s 744 mmHg 93%
    03:00 +3°C° 0 mm 3 m/s 744 mmHg 94%
    04:00 +3°C° 0 mm 3 m/s 744 mmHg 95%
    05:00 +3°C° 0 mm 3 m/s 744 mmHg 95%
    06:00 +4°C° 0 mm 3 m/s 744 mmHg 91%
    07:00 +5°C° 0 mm 4 m/s 745 mmHg 86%
    08:00 +6°C° 0 mm 4 m/s 745 mmHg 81%
    09:00 +8°C° 0 mm 3 m/s 745 mmHg 76%
    10:00 +9°C° 0 mm 3 m/s 745 mmHg 72%
    11:00 +10°C° 0 mm 3 m/s 745 mmHg 68%
    12:00 +10°C° 0 mm 3 m/s 745 mmHg 65%
    13:00 +11°C° 0 mm 3 m/s 745 mmHg 63%
    14:00 +12°C° 0 mm 2 m/s 745 mmHg 60%
    15:00 +12°C° 0 mm 2 m/s 744 mmHg 60%
    16:00 +12°C° 0 mm 2 m/s 744 mmHg 61%
    17:00 +13°C° 0 mm 2 m/s 743 mmHg 61%
    18:00 +10°C° 0 mm 2 m/s 743 mmHg 68%
    19:00 +9°C° 0 mm 2 m/s 742 mmHg 75%
    20:00 +7°C° 0 mm 2 m/s 742 mmHg 82%
    21:00 +7°C° 0 mm 3 m/s 741 mmHg 81%
    22:00 +8°C° 0 mm 3 m/s 740 mmHg 81%
    23:00 +8°C° 0 mm 3 m/s 739 mmHg 80%

    Poimâine, 21 Aprilie, Sâmbătă

    Timp Temperatura Precipitaţii Vânt Presiune Umiditate
    00:00 +7°C° 0 mm 4 m/s 738 mmHg 81%
    01:00 +7°C° 0 mm 4 m/s 737 mmHg 82%
    02:00 +8°C° 0 mm 4 m/s 736 mmHg 84%
    03:00 +8°C° 0 mm 4 m/s 735 mmHg 86%
    04:00 +7°C° 0 mm 4 m/s 735 mmHg 89%
    05:00 +7°C° 0 mm 5 m/s 734 mmHg 91%
    06:00 +8°C° 0,1 mm 5 m/s 733 mmHg 87%
    07:00 +9°C° 0,1 mm 5 m/s 732 mmHg 82%
    08:00 +11°C° 0,1 mm 6 m/s 731 mmHg 78%
    09:00 +11°C° 0,2 mm 6 m/s 730 mmHg 79%
    10:00 +11°C° 0,2 mm 6 m/s 729 mmHg 80%
    11:00 +11°C° 0,2 mm 6 m/s 729 mmHg 82%
    12:00 +11°C° 0,2 mm 7 m/s 729 mmHg 77%
    13:00 +10°C° 0,2 mm 7 m/s 729 mmHg 72%
    14:00 +10°C° 0,2 mm 8 m/s 729 mmHg 67%
    15:00 +10°C° 0 mm 7 m/s 729 mmHg 63%
    16:00 +9°C° 0 mm 7 m/s 730 mmHg 60%
    17:00 +9°C° 0 mm 6 m/s 730 mmHg 57%
    18:00 +8°C° 0,1 mm 6 m/s 730 mmHg 63%
    19:00 +7°C° 0,1 mm 5 m/s 731 mmHg 70%
    20:00 +6°C° 0,1 mm 4 m/s 731 mmHg 76%
    21:00 +6°C° 0 mm 4 m/s 731 mmHg 78%
    22:00 +5°C° 0 mm 4 m/s 732 mmHg 80%
    23:00 +5°C° 0 mm 4 m/s 732 mmHg 81%

    22 Aprilie, Duminică

    Timp Temperatura Precipitaţii Vânt Presiune Umiditate
    00:00 +5°C° 0,1 mm 4 m/s 732 mmHg 82%
    01:00 +5°C° 0,1 mm 4 m/s 732 mmHg 82%
    02:00 +5°C° 0,1 mm 4 m/s 733 mmHg 83%
    03:00 +4°C° 0,1 mm 4 m/s 733 mmHg 83%
    04:00 +4°C° 0,1 mm 4 m/s 733 mmHg 84%
    05:00 +4°C° 0,1 mm 4 m/s 733 mmHg 85%
    06:00 +4°C° 0,2 mm 4 m/s 733 mmHg 84%
    07:00 +4°C° 0,2 mm 4 m/s 734 mmHg 82%
    08:00 +5°C° 0,2 mm 4 m/s 734 mmHg 81%
    09:00 +5°C° 0,2 mm 4 m/s 734 mmHg 78%
    10:00 +6°C° 0,2 mm 4 m/s 734 mmHg 76%
    11:00 +6°C° 0,2 mm 4 m/s 734 mmHg 73%
    12:00 +7°C° 0,4 mm 4 m/s 734 mmHg 72%
    13:00 +7°C° 0,4 mm 4 m/s 734 mmHg 70%
    14:00 +8°C° 0,4 mm 5 m/s 734 mmHg 68%
    15:00 +7°C° 0,4 mm 4 m/s 734 mmHg 71%
    16:00 +7°C° 0,4 mm 4 m/s 735 mmHg 73%
    17:00 +7°C° 0,4 mm 3 m/s 735 mmHg 75%
    18:00 +5°C° 0,1 mm 3 m/s 735 mmHg 80%
    19:00 +5°C° 0,1 mm 2 m/s 736 mmHg 84%
    20:00 +6°C° 0,1 mm 1 m/s 736 mmHg 88%
    21:00 +5°C° 0 mm 1 m/s 736 mmHg 89%
    22:00 +4°C° 0 mm 1 m/s 737 mmHg 89%
    23:00 +4°C° 0 mm 1 m/s 737 mmHg 89%

    23 Aprilie, Luni

    Timp Temperatura Precipitaţii Vânt Presiune Umiditate
    00:00 +3°C° 0 mm 1 m/s 737 mmHg 88%
    01:00 +3°C° 0 mm 1 m/s 737 mmHg 88%
    02:00 +2°C° 0 mm 1 m/s 738 mmHg 87%
    03:00 +2°C° 0 mm 1 m/s 738 mmHg 87%
    04:00 +1°C° 0 mm 1 m/s 738 mmHg 87%
    05:00 +1°C° 0 mm 1 m/s 738 mmHg 87%
    06:00 +2°C° 0 mm 1 m/s 739 mmHg 79%
    07:00 +4°C° 0 mm 1 m/s 739 mmHg 71%
    08:00 +5°C° 0 mm 1 m/s 739 mmHg 63%
    09:00 +7°C° 0 mm 1 m/s 739 mmHg 57%
    10:00 +9°C° 0 mm 1 m/s 740 mmHg 51%
    11:00 +10°C° 0 mm 1 m/s 740 mmHg 46%
    12:00 +11°C° 0 mm 1 m/s 740 mmHg 43%
    13:00 +11°C° 0 mm 1 m/s 739 mmHg 41%
    14:00 +12°C° 0 mm 1 m/s 739 mmHg 38%
    15:00 +11°C° 0 mm 1 m/s 739 mmHg 39%
    16:00 +10°C° 0 mm 0 m/s 739 mmHg 40%
    17:00 +9°C° 0 mm 0 m/s 738 mmHg 40%
    18:00 +8°C° 0 mm 0 m/s 738 mmHg 46%
    19:00 +7°C° 0 mm 1 m/s 738 mmHg 52%
    20:00 +6°C° 0 mm 1 m/s 738 mmHg 58%
    21:00 +5°C° 0 mm 1 m/s 738 mmHg 60%
    22:00 +5°C° 0 mm 1 m/s 738 mmHg 63%
    23:00 +3°C° 0 mm 2 m/s 738 mmHg 65%

    24 Aprilie, Marţi

    Timp Temperatura Precipitaţii Vânt Presiune Umiditate
    00:00 +3°C° 0 mm 2 m/s 737 mmHg 68%
    01:00 +2°C° 0 mm 2 m/s 737 mmHg 71%
    02:00 +2°C° 0 mm 2 m/s 737 mmHg 74%
    03:00 +2°C° 0 mm 2 m/s 737 mmHg 75%
    04:00 +2°C° 0 mm 2 m/s 736 mmHg 77%
    05:00 +1°C° 0 mm 3 m/s 736 mmHg 79%
    06:00 +3°C° 0 mm 3 m/s 736 mmHg 75%
    07:00 +4°C° 0 mm 3 m/s 735 mmHg 70%
    08:00 +5°C° 0 mm 4 m/s 735 mmHg 66%
    09:00 +6°C° 0,3 mm 4 m/s 735 mmHg 68%
    10:00 +6°C° 0,3 mm 4 m/s 734 mmHg 69%
    11:00 +7°C° 0,3 mm 5 m/s 734 mmHg 71%
    12:00 +7°C° 0,3 mm 4 m/s 734 mmHg 72%
    13:00 +7°C° 0,3 mm 4 m/s 733 mmHg 73%
    14:00 +7°C° 0,3 mm 4 m/s 733 mmHg 74%
    15:00 +7°C° 0,5 mm 4 m/s 733 mmHg 78%
    16:00 +6°C° 0,5 mm 4 m/s 732 mmHg 82%
    17:00 +7°C° 0,5 mm 3 m/s 732 mmHg 85%
    18:00 +5°C° 0,8 mm 3 m/s 732 mmHg 88%
    19:00 +5°C° 0,8 mm 3 m/s 732 mmHg 90%
    20:00 +5°C° 0,8 mm 3 m/s 731 mmHg 92%
    21:00 +5°C° 0,4 mm 3 m/s 731 mmHg 93%
    22:00 +5°C° 0,4 mm 2 m/s 731 mmHg 94%
    23:00 +5°C° 0,4 mm 2 m/s 731 mmHg 94%
    Arată mai mult